Regional Weather Roundup
Issued by NWS

Home | Current Version | Previous Version | Text Only | Print | Product List | Glossary On
Versions: 1 2 3 4 5 6 7 8 9 10 11 12 13 14 15 16 17 18 19 20 21 22 23 24 25 26 27 28 29 30 31 32 33 34 35 36 37 38 39 40 41 42 43 44 45 46 47 48 49 50
000
ASUS44 KJAN 222010
RWRMS

MISSISSIPPI HOURLY WEATHER ROUNDUP
NATIONAL WEATHER SERVICE JACKSON MS
300 PM CDT FRI AUG 22 2014

NOTE: "FAIR: INDICATES FEW OR NO CLOUDS BELOW 12,000 FEET WITH NO
SIGNIFICANT WEATHER AND/OR OBSTRUCTIONS TO VISIBILITY.

MSZ001>002-007>008-010>013-018>021-025>028-034>036-222100-
NORTHWEST MISSISSIPPI

CITY           SKY/WX    TMP DP  RH WIND       PRES   REMARKS
CLARKSDALE     FAIR      91  75  59 SW7       30.05F HX 102
CLEVELAND      FAIR      93  75  57 W5        30.04F HX 104
GREENWOOD      SUNNY     92  73  53 SW9       30.05F HX 100
GREENVILLE     SUNNY     92  70  48 SW8       30.04F HX  97
GRENADA        FAIR      91  72  52 W5        30.05F HX  98
OLIVE BRANCH   PTSUNNY   91  75  59 CALM      30.04F HX 102
OXFORD         FAIR      90  72  55 W9        30.07F HX  96
TUNICA           N/A     93  73  52 S5        30.04F HX 102
$$

MSZ003>006-009-014>017-022>024-029>033-037>039-222100-
NORTHEAST MISSISSIPPI

CITY           SKY/WX    TMP DP  RH WIND       PRES   REMARKS
BELMONT        FAIR      91  74  57 W5        30.06F HX  99
COLUMBUS AFB   MOSUNNY   95  69  41 NW12      30.05F HX 100
CORINTH        FAIR      93  72  49 SW6       30.03F HX 100
GOLDN TRIANGLE MOSUNNY   97  72  44 S7        30.05F HX 105
STARKVILLE     FAIR      97  63  32 W5        30.04F HX  98
TUPELO         SUNNY     96  70  42 MISG      30.04F HX 102
$$

MSZ040-058-222100-
CENTRAL MISSISSIPPI

CITY           SKY/WX    TMP DP  RH WIND       PRES   REMARKS
JACKSON INTL   MOSUNNY   93  71  48 SW5       30.07F HX 100
JACKSON HAWKNS PTSUNNY   93  73  52 VRB6      30.08F HX 102
MERIDIAN KEY   PTSUNNY   95  69  42 NW6       30.05F HX 100
MERIDIAN NAS   MOSUNNY   96  70  42 W8        30.05F HX 102
RAYMOND        FAIR      93  88  84 S3        30.08F HX 130
VICKSBURG      SUNNY     93  69  45 VRB3      30.06F HX  98
$$

MSZ059>079-222100-
SOUTH MISSISSIPPI

CITY           SKY/WX    TMP DP  RH WIND       PRES   REMARKS
BROOKHAVEN     MOCLDY    90  75  62 N3        30.11F HX 100
COLUMBIA       FAIR      93  73  52 MISG      30.06F HX 102
HATTIESBURG    SUNNY     95  70  44 CALM      30.06F HX 101
MCCOMB         MOSUNNY   93  70  46 CALM      30.08F HX  99
NATCHEZ        SUNNY     91  75  59 CALM      30.09F HX 102
PINE BELT      PTSUNNY   95  72  46 E3        30.09F HX 103
$$

MSZ080>082-222100-
COASTAL MISSISSIPPI

CITY           SKY/WX    TMP DP  RH WIND       PRES   REMARKS
BAY ST LOUIS   MOSUNNY  N/A N/A N/A CALM      30.05F
BILOXI         SUNNY     95  75  52 SW8       30.05F HX 107
PASCAGOULA     PTSUNNY   93  71  48 CALM      30.04F HX 100
GULFPORT       SUNNY     94  75  54 S8        30.04F HX 105
$$


USA.gov is the U.S. government's official web portal to all federal, state and local government web resources and services.